CAPE
0 0 108 60 48 56 64 55 69 34 28 6 0 0 0 0 0 0 0 0 0 0 0 9 0 0 0 0 0 0 0 0 0 0 0 0 0 0 0 0 1 2 2
0 0 10 98 72 88 81 71 28 13 4 1 0 0 0 0 0 0 0 0 0 0 0 5 40 0 0 0 0 0 0 0 0 0 0 0 0 0 0 0 0 2 2
0 19 32 38 29 31 18 15 1 0 0 0 0 0 0 0 0 0 0 0 0 0 0 0 35 92 7 1 3 0 0 0 0 0 0 0 0 0 0 0 0 0 0
7 12 12 17 19 12 0 0 0 0 0 0 0 0 0 0 0 0 0 0 0 0 0 0 0 30 77 74 28 14 2 0 0 0 0 0 0 0 0 0 0 0 0
58 50 47 5 0 2 0 0 0 0 0 0 0 0 0 0 0 0 0 0 0 0 0 0 0 0 0 24 94 86 56 4 0 0 0 0 0 0 0 0 0 0 0
130 112 82 44 0 0 0 0 0 0 0 0 0 0 0 0 0 0 0 0 0 0 0 0 0 0 1 7 24 66 85 53 30 0 0 0 0 0 0 0 0 0 0
227 178 134 124 73 0 3 0 0 0 0 0 0 0 0 0 0 0 0 13 0 0 0 0 0 0 0 11 10 34 82 45 84 44 38 1 0 0 0 0 0 0 0
488 316 254 251 215 162 103 92 60 33 8 6 0 0 0 23 22 22 8 0 0 0 0 0 0 0 0 3 0 6 7 12 55 94 47 55 3 0 0 0 0 0 0
489 496 491 349 316 290 254 201 150 84 48 7 4 3 11 5 0 0 0 0 0 0 0 0 0 0 0 0 0 0 0 0 0 15 59 51 48 2 4 2 1 0 0
238 257 285 306 253 220 271 192 173 112 58 63 44 41 3 26 54 11 0 0 0 0 0 0 0 0 0 0 0 0 0 0 0 2 24 33 41 50 19 12 15 4 22
117 124 147 163 148 119 191 221 179 142 126 106 99 71 54 16 8 31 9 0 0 0 0 0 0 0 0 0 0 0 0 0 0 0 4 20 17 30 60 74 36 21 4
236 150 136 152 141 114 35 70 59 128 123 162 167 141 121 89 39 16 1 0 0 0 0 0 0 0 0 0 0 0 0 0 0 0 8 43 30 36 69 21 18 14 18
0 55 95 159 81 162 180 208 165 176 217 175 196 163 134 83 45 13 1 1 0 0 0 0 0 0 0 0 0 1 0 1 1 17 38 9 4 14 11 20 11 10 5
0 0 0 1 27 63 95 117 163 207 234 220 191 131 86 65 44 8 1 9 14 10 0 0 0 0 0 0 1 0 0 0 1 3 7 1 1 2 1 0 0 0 0
0 0 0 0 0 0 3 8 5 46 85 132 124 73 25 0 0 0 0 10 17 1 1 0 0 1 1 0 0 0 0 1 2 2 2 1 0 0 0 0 0 0 0
0 0 0 0 0 0 0 0 0 0 3 0 0 0 0 0 0 0 0 0 0 0 0 0 2 1 1 0 0 0 0 0 0 2 1 0 0 0 0 0 0 0 0
0 0 0 0 0 0 0 0 0 0 0 0 0 0 0 0 0 0 0 0 0 0 0 1 1 0 1 0 0 0 0 0 0 0 0 0 0 0 0 0 0 0 0
0 0 0 0 0 0 0 0 0 0 0 0 0 0 0 0 0 0 0 0 0 0 0 0 1 0 0 0 0 0 0 0 0 0 0 0 0 0 0 0 0 0 0
0 0 0 0 0 0 0 0 0 0 0 0 0 0 0 0 0 0 0 0 0 0 0 0 0 0 0 0 0 0 0 0 0 0 0 0 0 0 0 0 0 0 0
0 0 0 0 0 0 0 0 0 0 0 0 0 0 0 0 0 0 0 0 0 0 0 0 0 0 0 0 0 0 0 0 0 0 0 0 0 0 0 0 0 0 0
0 0 0 0 0 0 0 0 0 0 0 0 0 0 0 0 0 0 0 0 0 0 0 0 0 0 0 0 0 0 0 0 0 0 0 0 0 0 0 0 0 0 0
0 0 0 0 0 0 0 0 0 0 0 0 0 0 0 0 0 0 0 0 0 0 0 0 0 0 0 0 0 0 0 0 0 0 0 0 0 0 0 0 0 0 0
0 0 0 0 0 0 0 0 0 0 0 0 0 0 0 0 0 0 0 0 0 0 0 0 0 0 0 0 0 0 0 0 0 0 0 0 0 0 0 0 0 0 0
1 1 0 0 0 0 1 1 0 0 0 0 0 0 0 0 0 0 0 0 0 0 0 0 0 0 0 0 0 0 0 0 0 0 0 0 0 0 0 0 0 0 0
0 0 0 1 0 0 2 1 0 0 0 0 0 0 0 0 0 0 0 0 0 0 0 0 0 0 0 0 0 0 0 0 0 0 0 0 0 0 0 0 0 0 0
0 0 1 0 0 0 1 2 0 0 0 0 0 0 0 0 0 0 0 0 0 0 0 0 0 0 0 0 0 0 0 0 0 0 0 0 0 0 0 0 0 0 0
CIN
-0 -0 -128 -153 -186 -175 -165 -169 -131 -155 -170 -110 -0 -0 -0 -0 -0 -0 -0 -0 -0 -0 -0 -11 -0 -0 -0 -0 -0 -0 -0 -0 -0 -0 -0 -0 -0 -0 -0 -0 -0 -0 -0
-0 -0 -90 -127 -151 -151 -143 -143 -181 -193 -64 -20 -0 -0 -0 -0 -0 -0 -0 -0 -0 -0 -0 -9 -8 -0 -0 -0 -0 -0 -0 -0 -0 -0 -0 -0 -0 -0 -0 -0 -0 -0 -0
-0 -207 -165 -163 -167 -174 -188 -192 -16 -0 -0 -0 -0 -0 -0 -0 -0 -0 -0 -0 -0 -0 -0 -0 -9 -4 -0 -0 -0 -0 -0 -0 -0 -0 -0 -0 -0 -0 -0 -0 -0 -0 -0
-260 -256 -249 -244 -233 -245 -0 -0 -0 -0 -0 -0 -0 -0 -0 -0 -0 -0 -0 -0 -0 -0 -0 -0 -0 -11 -2 -0 -0 -0 -0 -0 -0 -0 -0 -0 -0 -0 -0 -0 -0 -0 -0
-160 -190 -184 -113 -0 -164 -0 -0 -0 -0 -0 -0 -0 -0 -0 -0 -0 -0 -0 -0 -0 -0 -0 -0 -0 -0 -0 -12 -0 -0 -0 -1 -0 -0 -0 -0 -0 -0 -0 -0 -0 -0 -0
-106 -118 -116 -133 -35 -0 -0 -0 -0 -0 -0 -0 -0 -0 -0 -0 -0 -0 -0 -0 -0 -0 -0 -0 -0 -0 -7 -36 -19 -3 -0 -1 -0 -2 -0 -0 -0 -0 -0 -0 -0 -0 -0
-53 -66 -78 -66 -99 -0 -179 -0 -0 -0 -0 -0 -0 -0 -0 -0 -0 -0 -0 -45 -0 -0 -0 -0 -0 -0 -0 -40 -40 -17 -0 -3 -0 -1 -0 -27 -0 -0 -0 -0 -0 -0 -0
-7 -17 -14 -7 -19 -30 -75 -111 -142 -122 -114 -132 -0 -0 -0 -73 -72 -70 -70 -0 -0 -0 -0 -0 -0 -0 -0 -42 -0 -69 -80 -60 -11 -0 -0 -0 -3 -0 -0 -0 -0 -0 -0
-23 -18 -15 -27 -20 -10 -15 -32 -32 -95 -142 -76 -55 -11 -20 -42 -0 -0 -0 -0 -0 -0 -0 -0 -0 -0 -0 -0 -0 -0 -0 -0 -11 -42 -2 -0 -0 -5 -30 -45 -22 -0 -0
-28 -37 -28 -25 -28 -29 -26 -50 -52 -64 -87 -109 -77 -99 -11 -35 -11 -17 -0 -0 -0 -0 -0 -0 -0 -0 -0 -0 -0 -0 -0 -0 -0 -17 -8 -0 -0 -0 -19 -16 -5 -29 -0
-36 -45 -49 -64 -60 -61 -38 -40 -22 -23 -47 -57 -39 -51 -51 -47 -60 -44 -33 -0 -0 -0 -0 -0 -0 -0 -0 -0 -0 -0 -0 -0 -0 -0 -0 -5 -4 -12 -0 -0 -6 -0 -3
-9 -24 -29 -48 -65 -73 -77 -64 -59 -36 -44 -35 -24 -9 -17 -31 -71 -96 -44 -0 -0 -0 -0 -0 -0 -0 -0 -0 -0 -0 -0 -0 -0 -0 -7 -0 -0 -8 -1 -18 -15 -14 -17
-0 -18 -46 -20 -20 -68 -70 -51 -53 -33 -16 -14 -8 -11 -12 -27 -65 -115 -14 -6 -0 -0 -0 -0 -0 -0 -0 -0 -0 -0 -0 -0 -0 -2 -0 -6 -5 -6 -10 -13 -0 -0 -0
-0 -0 -0 -69 -124 -115 -95 -105 -13 -2 -6 -3 -3 -9 -9 -33 -51 -79 -10 -13 -4 -13 -0 -0 -0 -0 -0 -0 -0 -0 -0 -0 -0 -0 -3 -0 -0 -0 -0 -0 -0 -0 -0
-0 -0 -0 -0 -0 -0 -263 -187 -116 -55 -30 -13 -17 -42 -104 -11 -0 -0 -0 -46 -19 -2 -6 -0 -0 -0 -0 -0 -0 -0 -0 -1 -0 -0 -0 -0 -0 -0 -0 -0 -0 -0 -0
-0 -0 -0 -0 -0 -0 -0 -0 -1 -0 -125 -0 -1 -3 -0 -0 -0 -0 -0 -0 -0 -0 -0 -0 -0 -0 -0 -0 -0 -0 -0 -0 -0 -0 -0 -0 -0 -0 -0 -0 -0 -0 -0
-0 -0 -0 -0 -0 -0 -0 -0 -0 -0 -0 -0 -0 -0 -0 -0 -0 -0 -0 -0 -0 -0 -0 -0 -0 -0 -0 -0 -0 -0 -0 -0 -0 -0 -0 -0 -0 -0 -0 -0 -0 -0 -0
-0 -0 -0 -0 -0 -0 -0 -0 -0 -0 -0 -0 -0 -0 -0 -0 -0 -0 -0 -0 -0 -0 -0 -0 -0 -0 -0 -0 -0 -0 -0 -0 -0 -0 -0 -0 -0 -0 -0 -0 -0 -0 -0
-0 -0 -0 -0 -0 -0 -0 -0 -0 -0 -0 -0 -0 -0 -0 -0 -0 -0 -0 -0 -0 -0 -0 -0 -0 -0 -0 -0 -0 -0 -0 -0 -0 -0 -0 -0 -0 -0 -0 -0 -0 -0 -0
-0 -0 -0 -0 -0 -0 -0 -0 -0 -0 -0 -0 -0 -0 -0 -0 -0 -0 -0 -0 -0 -0 -0 -0 -0 -0 -0 -0 -0 -0 -0 -0 -0 -0 -0 -0 -0 -0 -0 -0 -0 -0 -0
-0 -0 -0 -0 -0 -0 -0 -0 -0 -0 -0 -0 -0 -0 -0 -0 -0 -0 -0 -0 -0 -0 -0 -0 -0 -0 -0 -0 -0 -0 -0 -0 -0 -0 -0 -0 -0 -0 -0 -0 -0 -0 -0
-0 -0 -0 -0 -0 -0 -0 -0 -0 -0 -0 -0 -0 -0 -0 -0 -0 -0 -0 -0 -0 -0 -0 -0 -0 -0 -0 -0 -0 -0 -0 -0 -0 -0 -0 -0 -0 -0 -0 -0 -0 -0 -0
-0 -0 -0 -0 -0 -0 -0 -0 -0 -0 -0 -0 -0 -0 -0 -0 -0 -0 -0 -0 -0 -0 -0 -0 -0 -0 -0 -0 -0 -0 -0 -0 -0 -0 -0 -0 -0 -0 -0 -0 -0 -0 -0
-0 -0 -0 -0 -0 -0 -0 -0 -0 -0 -0 -0 -0 -0 -0 -0 -0 -0 -0 -0 -0 -0 -0 -0 -0 -0 -0 -0 -0 -0 -0 -0 -0 -0 -0 -0 -0 -0 -0 -0 -0 -0 -0
-0 -0 -0 -0 -0 -0 -0 -0 -0 -0 -0 -0 -0 -0 -0 -0 -0 -0 -0 -0 -0 -0 -0 -0 -0 -0 -0 -0 -0 -0 -0 -0 -0 -0 -0 -0 -0 -0 -0 -0 -0 -0 -0
-0 -0 -0 -0 -0 -0 -0 -0 -0 -0 -0 -0 -0 -0 -0 -0 -0 -0 -0 -0 -0 -0 -0 -0 -0 -0 -0 -0 -0 -0 -0 -0 -0 -0 -0 -0 -0 -0 -0 -0 -0 -0 -0
Wind_Speed
4 4 5 7 7 8 9 9 9 11 12 11 13 15 15 15 14 16 14 14 15 15 15 14 16 17 18 19 19 19 19 19 19 19 20 20 20 20 21 22 22 23 24
6 5 6 5 6 6 7 9 12 13 14 14 13 12 13 12 13 14 15 13 13 14 13 13 13 14 14 15 16 17 17 17 17 18 18 18 19 19 19 21 21 22 23
12 10 11 11 12 13 14 13 15 15 15 15 15 15 12 12 11 12 13 15 13 13 13 12 12 12 11 12 13 13 14 15 15 16 17 17 17 18 18 19 20 22 23
13 12 15 13 12 13 13 14 14 13 12 13 13 12 13 13 13 12 12 13 14 14 13 13 12 12 12 10 10 10 11 12 12 13 14 15 15 16 16 18 20 21 22
12 13 15 15 13 13 13 13 13 13 14 13 14 15 14 12 11 12 14 15 13 14 16 14 13 13 13 11 10 10 10 8 8 10 12 12 13 13 14 16 18 20 21
12 14 15 14 12 12 12 12 12 13 14 14 14 13 13 13 12 12 14 14 14 14 16 18 15 15 13 11 10 10 11 11 6 8 9 9 10 11 11 14 17 18 19
13 14 16 16 13 12 12 11 12 14 13 14 18 20 15 12 11 12 13 15 17 15 19 19 18 18 18 13 13 13 13 15 15 12 7 8 8 8 9 12 14 16 18
17 14 16 17 15 14 14 15 13 15 16 13 18 19 24 22 12 11 13 15 17 19 21 21 21 21 21 18 19 19 21 21 19 19 16 7 5 6 6 10 12 13 15
17 18 17 18 18 17 16 16 16 15 18 17 15 19 24 24 22 18 16 17 20 20 21 22 21 22 22 21 21 21 23 23 22 21 18 16 5 4 4 7 9 11 13
16 15 14 17 20 22 21 22 22 21 18 21 20 16 18 22 22 23 19 19 20 20 20 20 21 21 21 22 22 23 24 23 23 22 20 17 14 6 3 3 5 7 11
18 17 14 13 16 21 23 24 27 26 23 22 21 21 18 20 20 22 23 21 21 20 20 20 20 21 22 22 22 23 24 23 22 22 21 19 18 15 4 2 3 8 12
20 19 21 17 20 23 25 25 28 27 25 22 17 18 20 21 19 18 19 19 21 19 18 19 20 21 22 22 23 24 24 22 21 21 18 17 20 17 6 9 10 12 13
25 24 25 25 23 22 22 24 31 30 26 21 19 21 18 18 17 16 17 19 19 18 18 20 18 20 21 22 23 21 24 21 19 17 16 17 18 17 14 11 12 13 15
23 23 24 24 26 26 24 27 29 28 24 22 20 20 19 17 17 16 16 17 20 17 18 19 20 20 20 20 21 21 21 20 19 18 17 17 16 15 13 12 14 15 16
23 22 23 26 26 26 26 27 28 24 23 23 21 20 19 18 17 16 17 17 18 21 19 20 20 19 18 18 18 19 18 18 17 17 17 17 16 15 14 14 16 16 17
23 23 24 24 24 25 25 24 24 23 21 22 21 18 17 18 16 16 17 19 19 19 21 21 20 18 17 17 17 17 15 15 17 16 16 17 16 15 15 16 16 16 17
21 22 24 24 24 24 23 23 23 22 21 20 19 17 18 16 16 17 18 19 19 20 21 20 19 17 17 16 16 14 14 14 16 16 16 16 16 16 16 16 16 17 17
22 23 24 25 25 26 25 25 24 23 22 21 18 17 18 17 18 17 18 19 20 20 19 18 17 16 16 15 13 14 14 15 15 16 16 16 16 16 16 16 17 17 18
23 25 26 26 27 27 26 26 23 22 21 19 19 18 18 16 17 17 18 19 18 17 17 16 15 14 14 11 13 14 13 14 15 14 15 16 16 16 16 16 17 18 18
24 24 25 25 26 26 26 25 23 21 21 21 19 19 18 18 17 18 17 17 15 15 14 13 12 12 12 13 12 12 13 14 14 16 17 15 17 17 16 16 17 17 17
22 23 24 25 25 25 25 26 23 22 21 21 20 19 19 18 17 16 15 14 12 13 11 9 11 11 12 13 12 12 13 13 16 17 18 18 16 18 17 16 17 17 17
22 23 24 25 25 26 26 25 24 22 20 18 18 17 17 17 16 15 14 14 13 10 9 9 10 10 12 12 12 13 13 15 15 18 19 18 17 18 16 16 16 17 18
21 23 25 26 26 25 24 22 21 20 18 16 16 15 15 14 13 13 12 12 11 12 11 11 9 12 11 12 11 13 14 14 15 16 19 18 17 18 16 17 16 18 20
23 25 26 26 25 25 22 20 19 18 17 17 15 13 12 12 11 11 11 10 11 12 13 12 10 12 12 12 12 12 12 14 15 17 18 17 19 18 19 20 17 20 21
24 25 26 26 25 24 21 20 19 16 15 14 14 13 12 11 10 8 8 9 9 12 12 12 12 12 12 12 12 12 13 14 16 16 19 19 19 21 20 19 17 19 21
24 23 24 24 23 21 17 17 17 16 14 15 14 13 11 9 7 9 8 8 10 9 10 12 12 12 13 13 13 14 13 13 16 17 18 19 20 22 22 19 19 21 21
Wind_Direction
33 28 49 50 55 57 55 56 53 29 28 35 26 18 18 23 35 31 41 44 41 41 41 42 36 33 32 29 28 28 26 25 26 26 25 26 27 28 29 24 19 16 12
330 347 346 22 29 52 41 23 1 354 358 1 12 26 25 30 28 29 26 36 35 34 37 37 35 31 28 26 26 28 28 26 28 27 26 28 29 29 28 23 18 13 10
303 313 316 323 325 329 332 338 339 344 345 351 353 0 20 24 32 25 23 20 26 25 28 29 27 21 19 20 20 22 23 23 24 24 24 27 27 27 26 22 18 12 7
298 304 303 313 318 323 325 330 335 345 350 350 358 7 7 8 10 13 16 15 14 15 17 18 18 12 8 7 10 13 15 16 20 21 21 22 24 26 25 19 13 9 7
296 299 301 305 312 317 322 327 333 336 339 344 348 349 354 4 7 6 1 1 4 5 6 8 7 5 2 2 4 1 1 5 11 12 11 14 18 21 23 20 13 8 7
289 292 298 303 307 310 316 323 328 334 333 340 344 347 350 351 354 353 354 354 355 1 3 1 4 2 3 4 358 352 352 353 356 354 357 3 7 16 16 15 12 10 9
283 289 291 294 298 304 310 317 321 322 329 331 331 329 338 341 343 346 350 349 351 356 355 358 2 359 357 0 1 354 348 346 346 348 334 341 355 5 11 10 10 9 8
287 286 288 290 293 298 302 306 310 314 317 326 326 329 328 334 336 340 347 349 354 354 353 355 356 356 354 0 358 353 345 338 336 338 345 318 328 348 358 4 7 8 12
284 284 289 288 292 297 298 302 304 305 309 314 317 324 325 327 336 344 343 345 344 345 348 349 352 351 348 352 352 351 343 338 337 337 339 342 300 309 332 1 9 11 16
297 288 286 290 291 295 296 299 299 299 303 305 312 314 320 326 328 330 336 339 342 343 347 350 350 351 350 349 350 347 340 340 339 340 343 344 346 280 234 354 17 21 16
297 305 304 299 296 297 299 302 304 298 296 300 306 315 315 316 319 319 324 332 337 344 347 348 348 347 348 349 347 344 340 341 343 345 346 346 343 347 210 291 18 21 10
297 299 299 301 299 298 299 301 296 295 298 303 307 307 310 317 317 319 320 324 330 338 345 346 347 345 347 348 345 342 340 343 347 349 353 4 4 357 17 24 33 27 22
294 294 298 305 301 301 301 298 294 296 300 302 303 304 307 308 317 320 323 328 328 334 337 343 347 345 345 344 343 344 343 349 355 6 18 12 12 20 30 33 23 13 3
296 302 296 298 299 301 302 300 298 298 303 302 302 305 307 308 312 316 317 325 328 331 333 334 341 343 346 345 344 345 348 355 360 6 9 9 12 14 13 7 0 356 356
302 302 304 300 302 304 307 304 301 302 301 301 301 303 304 307 311 313 316 323 322 323 323 330 331 340 344 346 346 344 351 356 1 2 4 7 8 8 8 2 355 352 352
302 303 305 308 308 306 307 308 307 307 305 305 305 304 305 308 310 314 316 319 320 320 320 327 329 335 341 343 344 345 352 360 0 2 3 0 2 3 1 356 355 355 357
305 305 304 307 308 310 312 311 311 309 306 307 309 307 308 308 307 313 315 320 318 319 317 324 328 333 335 338 341 351 355 2 358 357 356 359 0 2 1 1 360 359 357
304 305 306 306 307 307 308 309 308 307 306 305 306 306 306 307 309 314 313 317 318 318 318 319 325 330 332 336 346 350 354 357 357 356 359 0 0 3 2 359 358 357 357
305 304 302 303 302 304 305 305 307 306 305 305 305 305 306 306 308 312 315 316 318 320 322 323 324 332 335 346 343 349 355 354 357 359 358 357 358 359 358 359 357 355 354
306 306 307 306 306 306 305 304 305 304 304 305 306 307 306 306 307 310 314 316 320 321 326 328 333 331 339 339 343 348 348 352 354 352 351 356 356 354 356 355 355 356 355
310 309 308 307 308 307 306 305 304 302 301 302 305 307 309 312 313 313 314 318 323 323 329 337 327 338 334 336 340 346 348 350 347 346 346 350 355 354 355 359 359 360 360
310 309 308 308 306 306 305 304 303 302 302 303 304 308 310 312 313 316 320 323 323 323 325 329 332 332 333 339 343 344 345 344 346 347 349 350 354 355 2 3 5 360 357
314 311 309 308 306 308 307 306 307 305 303 305 304 305 308 313 316 319 325 327 332 334 328 325 330 331 335 339 345 344 344 345 346 349 348 351 356 356 2 1 0 356 351
313 311 309 308 307 306 305 308 307 305 303 303 303 305 308 312 316 317 323 329 331 327 328 334 338 339 344 346 348 347 348 347 348 351 350 349 350 351 351 353 357 354 353
312 310 309 307 308 305 305 303 303 305 305 302 304 307 306 311 316 324 324 324 328 323 333 340 342 347 350 352 352 351 349 348 346 347 348 349 349 347 349 351 355 354 355
313 314 311 310 309 308 310 303 301 303 303 299 302 308 312 318 325 317 317 315 317 325 329 334 339 348 349 348 349 348 348 348 346 344 348 349 348 349 347 356 355 353 353